This demonstration page uses our WeatherBlox Daily Observations layout. Learn more.

Left ArrowRight Arrow

41.12389, -100.76542

Hourly Observations for December 15, 2016

Temp ( °F °C ) Dew Point ( °F °C ) Humidity (%) Winds ( mph kmh ) Pressure ( in mb ) Visibility ( mi km ) Precip ( " mm )
12:53 am 00:53 Cloudy 18 -7.8 7 -13.9 62 62 E 5 7 30.43 1031 10 16 0.00 0.00
1:53 am 01:53 Cloudy 18 -7.8 7 -13.9 62 62 ESE 5 7 30.42 1030 10 16 0.00 0.00
2:53 am 02:53 Cloudy 19 -7.2 7 -13.9 59 59 E 5 7 30.40 1030 10 16 0.00 0.00
3:53 am 03:53 Cloudy 20 -6.7 7 -13.9 57 57 ESE 5 7 30.37 1028 10 16 0.00 0.00
4:53 am 04:53 Cloudy 19 -7.2 8 -13.3 62 62 ESE 9 15 30.34 1027 10 16 0.00 0.00
5:53 am 05:53 Cloudy 20 -6.7 9 -12.8 62 62 ESE 9 15 30.32 1027 10 16 0.00 0.00
6:53 am 06:53 Clear 15 -9.4 8 -13.3 74 74 SE 6 9 30.32 1027 10 16 0.00 0.00
7:53 am 07:53 Clear 19 -7.2 4 -15.6 51 51 SSE 9 15 30.28 1026 10 16 0.00 0.00
8:53 am 08:53 Sunny 21 -6.1 -1 -18.3 38 38 S 13 20 30.26 1025 10 16 0.00 0.00
9:53 am 09:53 Sunny 22 -5.6 -1 -18.3 36 36 S 16 26 30.23 1024 10 16 0.00 0.00
10:53 am 10:53 Sunny 25 -3.9 -3 -19.4 29 29 S 20 31 30.18 1022 10 16 0.00 0.00
11:53 am 11:53 Sunny 27 -2.8 -4 -20 25 25 S 28 44 30.11 1020 10 16 0.00 0.00
12:53 pm 12:53 Sunny 29 -1.7 -1 -18.3 27 27 S 23 37 30.05 1018 10 16 0.00 0.00
1:53 pm 13:53 Sunny 29 -1.7 2 -16.7 31 31 S 23 37 29.99 1016 10 16 0.00 0.00
2:53 pm 14:53 Sunny 31 -0.6 4 -15.6 31 31 S 22 35 29.95 1014 10 16 0.00 0.00
3:53 pm 15:53 Sunny 30 -1.1 3 -16.1 31 31 S 21 33 29.95 1014 10 16 0.00 0.00
4:53 pm 16:53 Sunny 28 -2.2 0 -17.8 29 29 S 16 26 29.95 1014 10 16 0.00 0.00
5:53 pm 17:53 Clear 27 -2.8 -1 -18.3 29 29 S 15 24 29.93 1014 10 16 0.00 0.00
6:53 pm 18:53 Clear 26 -3.3 0 -17.8 32 32 S 12 19 29.93 1014 10 16 0.00 0.00
7:53 pm 19:53 Clear 25 -3.9 1 -17.2 35 35 SSE 13 20 29.92 1013 10 16 0.00 0.00
8:53 pm 20:53 Clear 25 -3.9 2 -16.7 37 37 SSE 14 22 29.89 1012 10 16 0.00 0.00
9:53 pm 21:53 Clear 24 -4.4 3 -16.1 40 40 SSE 8 13 29.87 1011 10 16 0.00 0.00
10:53 pm 22:53 Clear 23 -5 3 -16.1 42 42 SSE 10 17 29.85 1011 10 16 0.00 0.00
11:53 pm 23:53 Clear 22 -5.6 3 -16.1 44 44 SSE 7 11 29.82 1010 10 16 0.00 0.00

Powered by AerisWeather